Starlink 1585

operational
NORAD ID: 46117 Int'l Des: 2020-057 Owner: SPXS Country: US Constellation: starlink
LEOCIRCULARSTARLINK_TYPE

Starlink 1585について

説明を読み込み中...

リアルタイム位置

3D地球を読み込み中...

次回通過

高度履歴

Altitude vs Time

uPlot chart will show altitude changes over time

軌道要素

1 46117U 20057A 25305.66668981 .00014955 00000-0 37620-3 0 9993
2 46117 53.0551 148.4121 0001488 105.9775 132.2471 15.40176418 5851
Epoch: Nov 1, 2025 • Age: 11 hours

現在のステータス

高度 460.6 km
速度 7.64 km/s
衛星直下点 -42.26°S, 14°E
打ち上げ日 Aug 18, 2020
運用期間 5.2 years
タイプ internet

技術仕様

分類 Payload
質量 260.00 kg
乾燥質量 248.00 kg
総質量 260.00 kg
長さ 0.20 m
直径 2.80 m
スパン 9.00 m
形状 Box + pan
製造者 SPXS
バスタイプ Starlink
フェーズステータス In Orbit
所有者/国 SPXS/US

大規模コンステレーション

Loading constellations...